New Delhi, India

1:37 AM IST on February 20, 2018 (GMT +0530)
Indira Gandhi International

Weather History for VIDP - August, 2013

Change the Weather History Date:

Tuesday, August 20, 2013

  Actual Average Record
Temperature  
Mean Temperature 84 °F -  
Max Temperature 89 °F 91 °F 102 °F (2002)
Min Temperature 78 °F 77 °F 78 °F (1996)
Cooling Degree Days 18    
Growing Degree Days 34 (Base 50)    
Moisture  
Dew Point 79 °F    
Average Humidity 93    
Maximum Humidity 100    
Minimum Humidity 70    
Precipitation  
Precipitation 0.00 in - - ()
Sea Level Pressure  
Sea Level Pressure 29.55 in    
Wind  
Wind Speed 2 mph ()    
Max Wind Speed 7 mph    
Max Gust Speed -    
Visibility 1.2 miles    
Events Rain , Thunderstorm    
Averages and records for this station are not official NWS values.
T = Trace of Precipitation, MM = Missing Value Source: Averaged Metar Reports

Daily Weather History Graph

Daily Weather History Graph

Search for Another Location

Airport or City:

Trip Planner

Search our weather history database for the weather conditions in past years. The results will help you decide how hot, cold, wet, or windy it might be!

Date:

Astronomy

Aug. 20, 2013 Rise Set
Actual Time 5:53 AM IST 6:55 PM IST
Civil Twilight 5:28 AM IST 7:20 PM IST
Nautical Twilight 4:59 AM IST 7:49 PM IST
Astronomical Twilight 4:30 AM IST 8:19 PM IST
Moon 6:12 PM IST (8/20) 4:50 AM IST (8/20)
Length of Visible Light 13h 51m
Length of Day
13h 02m
Waxing Gibbous, 99% of the Moon is Illuminated
Aug 20
Waxing Gibbous
Aug 21
Full
Aug 28
Last Quarter
Sep 5
New
Sep 12
First Quarter

Hourly Weather History & Observations

Time (IST) Temp. Heat Index Dew Point Humidity Pressure Visibility Wind Dir Wind Speed Gust Speed Precip Events Conditions
12:00 AM 80.6 °F 88.1 °F 78.8 °F 94% 29.59 in 1.4 mi Calm Calm - N/A   Mostly Cloudy
12:30 AM 80.6 °F 88.1 °F 78.8 °F 94% 29.59 in 1.2 mi Calm Calm - N/A   Mostly Cloudy
1:00 AM 80.6 °F 89.3 °F 80.6 °F 100% 29.59 in 1.2 mi Calm Calm - N/A   Mostly Cloudy
1:30 AM 80.6 °F 89.3 °F 80.6 °F 100% 29.56 in 1.2 mi Calm Calm - N/A   Mostly Cloudy
2:00 AM 80.6 °F 89.3 °F 80.6 °F 100% 29.56 in 1.2 mi Calm Calm - N/A   Mostly Cloudy
2:30 AM 80.6 °F 89.3 °F 80.6 °F 100% 29.56 in 1.2 mi Calm Calm - N/A   Mostly Cloudy
3:00 AM 80.6 °F 89.3 °F 80.6 °F 100% 29.56 in 1.2 mi Calm Calm - N/A   Mostly Cloudy
3:30 AM 80.6 °F 89.3 °F 80.6 °F 100% 29.53 in 1.0 mi Calm Calm - N/A   Mostly Cloudy
4:00 AM 80.6 °F 88.1 °F 78.8 °F 94% 29.53 in 1.0 mi Calm Calm - N/A   Mostly Cloudy
4:30 AM 80.6 °F 88.1 °F 78.8 °F 94% 29.53 in 1.0 mi Calm Calm - N/A   Mostly Cloudy
5:00 AM 80.6 °F 88.1 °F 78.8 °F 94% 29.53 in 0.9 mi Calm Calm - N/A   Mostly Cloudy
5:30 AM 80.6 °F 88.1 °F 78.8 °F 94% 29.56 in 1.1 mi West 6.9 mph - N/A   Mostly Cloudy
6:00 AM 78.8 °F - 78.8 °F 100% 29.56 in 1.1 mi West 5.8 mph - N/A   Mostly Cloudy
6:30 AM 78.8 °F - 78.8 °F 100% 29.56 in 1.1 mi WSW 5.8 mph - N/A   Mostly Cloudy
7:00 AM 78.8 °F - 78.8 °F 100% 29.56 in 1.0 mi West 4.6 mph - N/A   Mostly Cloudy
7:30 AM 80.6 °F 88.1 °F 78.8 °F 94% 29.56 in 1.2 mi West 4.6 mph - N/A   Mostly Cloudy
8:00 AM 80.6 °F 88.1 °F 78.8 °F 94% 29.56 in 1.2 mi West 3.5 mph - N/A   Mostly Cloudy
8:30 AM 82.4 °F 94.0 °F 80.6 °F 94% 29.56 in 1.5 mi NW 3.5 mph - N/A   Mostly Cloudy
9:00 AM 82.4 °F 94.0 °F 80.6 °F 94% 29.56 in 1.5 mi NW 3.5 mph - N/A   Mostly Cloudy
10:00 AM 86.0 °F 101.9 °F 80.6 °F 84% 29.59 in 1.6 mi NW 5.8 mph - N/A   Scattered Clouds
10:30 AM 86.0 °F 101.9 °F 80.6 °F 84% 29.56 in 1.6 mi NW 4.6 mph - N/A   Scattered Clouds
11:00 AM 87.8 °F 104.9 °F 80.6 °F 79% 29.56 in 1.6 mi WNW 4.6 mph - N/A   Scattered Clouds
11:30 AM 87.8 °F 104.9 °F 80.6 °F 79% 29.56 in 1.6 mi West 5.8 mph - N/A   Mostly Cloudy
12:00 PM 89.6 °F 111.1 °F 82.4 °F 79% 29.56 in 1.5 mi West 5.8 mph - N/A   Mostly Cloudy
12:30 PM 89.6 °F 104.7 °F 78.8 °F 70% 29.56 in 1.5 mi West 6.9 mph - N/A   Haze
1:00 PM 89.6 °F 104.7 °F 78.8 °F 70% 29.53 in 1.5 mi West 6.9 mph - N/A   Mostly Cloudy
3:00 PM 78.8 °F - 77.0 °F 94% 29.53 in 1.2 mi NNE 6.9 mph - N/A Rain , Thunderstorm Thunderstorms and Rain
3:30 PM 78.8 °F - 77.0 °F 94% 29.53 in 1.2 mi NNW 4.6 mph - N/A   Overcast
4:00 PM 78.8 °F - 77.0 °F 94% 29.50 in 1.2 mi WNW 3.5 mph - N/A   Overcast
4:30 PM 78.8 °F - 77.0 °F 94% 29.50 in 1.2 mi SSW 2.3 mph - N/A   Overcast
5:00 PM 78.8 °F - 77.0 °F 94% 29.50 in 1.2 mi North 3.5 mph - N/A Rain Rain
5:30 PM 78.8 °F - 77.0 °F 94% 29.50 in 1.2 mi SE 2.3 mph - N/A Rain Rain
6:00 PM 78.8 °F - 77.0 °F 94% 29.50 in 1.2 mi SE 2.3 mph - N/A Rain Rain
6:30 PM 78.8 °F - 77.0 °F 94% 29.50 in 1.1 mi SE 3.5 mph - N/A   Overcast
7:00 PM 78.8 °F - 77.0 °F 94% 29.53 in 1.1 mi SSW 3.5 mph - N/A   Overcast
7:30 PM 78.8 °F - 77.0 °F 94% 29.53 in 1.1 mi South 3.5 mph - N/A   Overcast
8:00 PM 78.8 °F - 77.0 °F 94% 29.53 in 1.1 mi WSW 3.5 mph - N/A   Overcast
8:30 PM 78.8 °F - 77.0 °F 94% 29.53 in 1.1 mi Calm Calm - N/A   Overcast
9:00 PM 80.6 °F 89.3 °F 80.6 °F 100% 29.56 in 1.0 mi Calm Calm - N/A   Overcast
9:30 PM 80.6 °F 89.3 °F 80.6 °F 100% 29.56 in 1.0 mi Calm Calm - N/A   Mostly Cloudy
10:30 PM 80.6 °F 89.3 °F 80.6 °F 100% 29.56 in 0.9 mi East 3.5 mph - N/A   Mostly Cloudy
11:00 PM 80.6 °F 89.3 °F 80.6 °F 100% 29.56 in 0.9 mi East 3.5 mph - N/A   Mostly Cloudy
11:30 PM 80.6 °F 89.3 °F 80.6 °F 100% 29.56 in 0.7 mi Calm Calm - N/A   Mostly Cloudy